NDF255 ESGG-EDDH

Flight info

Callsign NDF255
Flight time 1h 9m
Altitude 38000
Route VADIN3J VADIN DCT ALASA/N0451F370 M852 EKERN/N0401F230 T905 BOGMU BOGMU5A
Aircraft B38M/M-SDE1FGHILORVWXY/HB1

Departure

Time 2026-05-05 20:03
Airport Göteborg Landvetter Airport (ESGG)

Arrival

Time 2026-05-05 21:12
Airport Hamburg Helmut Schmidt Airport (EDDH)
Time Latitude Longitude Altitude Speed Heading
2026-05-05 19:37 57.66889 12.29417 523 ft 0 kts 116°
2026-05-05 19:51 57.66896 12.29390 522 ft 4 kts 116°
2026-05-05 19:51 57.66907 12.29346 522 ft 4 kts 105°
2026-05-05 19:51 57.66907 12.29301 521 ft 4 kts 60°
2026-05-05 19:52 57.66890 12.29271 521 ft 2 kts 26°
2026-05-05 19:52 57.66886 12.29267 521 ft 0 kts 26°
2026-05-05 19:55 57.66886 12.29268 520 ft 1 kts 26°
2026-05-05 19:55 57.66927 12.29304 521 ft 12 kts 22°
2026-05-05 19:56 57.67001 12.29239 514 ft 15 kts 310°
2026-05-05 19:56 57.67047 12.29196 516 ft 6 kts
2026-05-05 19:56 57.67121 12.29254 515 ft 19 kts 26°
2026-05-05 19:56 57.67263 12.29380 515 ft 25 kts 25°
2026-05-05 19:57 57.67426 12.29524 517 ft 23 kts 25°
2026-05-05 19:57 57.67507 12.29589 517 ft 8 kts 10°
2026-05-05 19:57 57.67548 12.29548 518 ft 8 kts 307°
2026-05-05 19:57 57.67582 12.29434 517 ft 12 kts 290°
2026-05-05 19:58 57.67588 12.29388 516 ft 0 kts 271°
2026-05-05 20:01 57.67588 12.29372 516 ft 3 kts 271°
2026-05-05 20:01 57.67587 12.29299 516 ft 8 kts 266°
2026-05-05 20:01 57.67563 12.29166 516 ft 14 kts 234°
2026-05-05 20:01 57.67525 12.29109 514 ft 0 kts 204°
2026-05-05 20:02 57.67414 12.29009 515 ft 56 kts 206°
2026-05-05 20:02 57.66796 12.28442 515 ft 139 kts 206°
2026-05-05 20:03 57.65747 12.27510 767 ft 185 kts 206°
2026-05-05 20:03 57.64536 12.26455 1745 ft 198 kts 206°
2026-05-05 20:03 57.63235 12.25329 2628 ft 213 kts 205°
2026-05-05 20:03 57.61824 12.24102 3205 ft 243 kts 206°
2026-05-05 20:04 57.60242 12.22745 4319 ft 244 kts 204°
2026-05-05 20:04 57.58588 12.22077 5616 ft 254 kts 180°
2026-05-05 20:04 57.56768 12.22359 6550 ft 270 kts 179°
2026-05-05 20:04 57.54886 12.22380 7698 ft 270 kts 189°
2026-05-05 20:05 57.53003 12.21995 8823 ft 275 kts 191°
2026-05-05 20:05 57.51085 12.21603 9955 ft 279 kts 191°
2026-05-05 20:05 57.49112 12.21210 10775 ft 294 kts 192°
2026-05-05 20:05 57.47034 12.20804 11350 ft 314 kts 192°
2026-05-05 20:06 57.44799 12.20190 11988 ft 324 kts 203°
2026-05-05 20:06 57.42847 12.18265 12819 ft 321 kts 222°
2026-05-05 20:06 57.41196 12.15530 13719 ft 321 kts 231°
2026-05-05 20:06 57.39701 12.12440 14583 ft 323 kts 233°
2026-05-05 20:07 57.38399 12.09050 15365 ft 325 kts 239°
2026-05-05 20:07 57.36780 12.06060 16204 ft 334 kts 222°
2026-05-05 20:07 57.34999 12.03276 16938 ft 337 kts 227°
2026-05-05 20:07 57.33278 12.00302 17664 ft 341 kts 228°
2026-05-05 20:08 57.31566 11.97238 18404 ft 344 kts 229°
2026-05-05 20:08 57.29850 11.94111 19030 ft 348 kts 229°
2026-05-05 20:08 57.28127 11.90942 19694 ft 351 kts 229°
2026-05-05 20:08 57.26395 11.87738 20351 ft 354 kts 229°
2026-05-05 20:09 57.24651 11.84504 20999 ft 357 kts 229°
2026-05-05 20:09 57.22895 11.81246 21629 ft 360 kts 229°
2026-05-05 20:09 57.21122 11.77957 22254 ft 363 kts 229°
2026-05-05 20:09 57.19350 11.74677 22857 ft 366 kts 229°
2026-05-05 20:10 57.17526 11.71305 23471 ft 369 kts 229°
2026-05-05 20:10 57.15704 11.67938 23983 ft 372 kts 229°
2026-05-05 20:10 57.14594 11.65963 24284 ft 376 kts 225°
2026-05-05 20:11 57.12416 11.63495 24802 ft 387 kts 209°
2026-05-05 20:11 57.09936 11.61534 25265 ft 390 kts 209°
2026-05-05 20:11 57.07430 11.59547 25688 ft 394 kts 208°
2026-05-05 20:12 57.04898 11.57575 26201 ft 396 kts 208°
2026-05-05 20:12 57.02348 11.55609 26665 ft 399 kts 208°
2026-05-05 20:12 56.99779 11.53639 27134 ft 401 kts 208°
2026-05-05 20:12 56.97195 11.51663 27594 ft 404 kts 208°
2026-05-05 20:13 56.94595 11.49678 28038 ft 406 kts 208°
2026-05-05 20:13 56.91975 11.47682 28478 ft 409 kts 208°
2026-05-05 20:13 56.89342 11.45679 28904 ft 411 kts 208°
2026-05-05 20:13 56.86690 11.43664 29329 ft 414 kts 208°
2026-05-05 20:14 56.84023 11.41642 29699 ft 416 kts 208°
2026-05-05 20:14 56.81342 11.39611 30091 ft 419 kts 208°
2026-05-05 20:14 56.78643 11.37571 30425 ft 421 kts 208°
2026-05-05 20:14 56.75929 11.35522 30765 ft 423 kts 208°
2026-05-05 20:15 56.73203 11.33467 31119 ft 425 kts 208°
2026-05-05 20:15 56.70477 11.31417 31562 ft 423 kts 208°
2026-05-05 20:15 56.67791 11.29398 32044 ft 422 kts 208°
2026-05-05 20:15 56.65081 11.27365 32510 ft 421 kts 208°
2026-05-05 20:16 56.62379 11.25341 32972 ft 420 kts 208°
2026-05-05 20:16 56.59679 11.23322 33409 ft 419 kts 207°
2026-05-05 20:16 56.56990 11.21314 33827 ft 419 kts 207°
2026-05-05 20:16 56.54288 11.19300 33976 ft 420 kts 207°
2026-05-05 20:17 56.51596 11.17296 33969 ft 417 kts 207°
2026-05-05 20:17 56.46235 11.13314 33962 ft 417 kts 207°
2026-05-05 20:18 56.40870 11.09342 33962 ft 417 kts 207°
2026-05-05 20:18 56.35504 11.05381 33963 ft 417 kts 207°
2026-05-05 20:19 56.30118 11.01418 33961 ft 420 kts 207°
2026-05-05 20:19 56.24706 10.97447 33950 ft 420 kts 207°
2026-05-05 20:20 56.19298 10.93490 33956 ft 420 kts 206°
2026-05-05 20:20 56.13884 10.89543 33951 ft 420 kts 206°
2026-05-05 20:21 56.08468 10.85606 33924 ft 420 kts 206°
2026-05-05 20:21 56.03034 10.81667 33952 ft 422 kts 206°
2026-05-05 20:22 55.97594 10.77737 33952 ft 422 kts 206°
2026-05-05 20:22 55.92153 10.73817 33949 ft 422 kts 206°
2026-05-05 20:23 55.86709 10.69908 33950 ft 422 kts 206°
2026-05-05 20:23 55.81274 10.66016 33944 ft 419 kts 206°
2026-05-05 20:24 55.75916 10.62191 33943 ft 417 kts 206°
2026-05-05 20:24 55.70526 10.58355 33948 ft 418 kts 206°
2026-05-05 20:25 55.65132 10.54527 33944 ft 417 kts 206°
2026-05-05 20:25 55.59742 10.50714 33947 ft 417 kts 206°
2026-05-05 20:26 55.54350 10.46910 33967 ft 417 kts 206°
2026-05-05 20:26 55.48956 10.43116 33968 ft 417 kts 206°
2026-05-05 20:27 55.43557 10.39330 33966 ft 417 kts 206°
2026-05-05 20:27 55.38163 10.35559 33962 ft 417 kts 206°
2026-05-05 20:28 55.32774 10.31802 33937 ft 414 kts 207°
2026-05-05 20:28 55.27451 10.28102 33935 ft 410 kts 207°
2026-05-05 20:29 55.22148 10.24427 33933 ft 410 kts 207°
2026-05-05 20:29 55.16843 10.20760 33936 ft 410 kts 207°
2026-05-05 20:30 55.12441 10.17726 33554 ft 405 kts 207°
2026-05-05 20:30 55.09826 10.15926 32896 ft 402 kts 207°
2026-05-05 20:30 55.07243 10.14152 32455 ft 395 kts 207°
2026-05-05 20:30 55.04713 10.12416 32007 ft 392 kts 207°
2026-05-05 20:31 55.02128 10.10644 31339 ft 403 kts 207°
2026-05-05 20:31 54.99507 10.08850 30755 ft 406 kts 207°
2026-05-05 20:31 54.96870 10.07047 30177 ft 407 kts 207°
2026-05-05 20:31 54.94238 10.05250 29549 ft 405 kts 206°
2026-05-05 20:32 54.91622 10.03467 28952 ft 403 kts 206°
2026-05-05 20:32 54.89019 10.01695 28395 ft 400 kts 206°
2026-05-05 20:32 54.86433 9.99937 27846 ft 398 kts 206°
2026-05-05 20:32 54.83863 9.98192 27256 ft 395 kts 206°
2026-05-05 20:33 54.81306 9.96478 26742 ft 394 kts 203°
2026-05-05 20:33 54.78621 9.95426 26158 ft 395 kts 195°
2026-05-05 20:33 54.75935 9.94563 25658 ft 390 kts 196°
2026-05-05 20:33 54.73280 9.93691 25145 ft 387 kts 195°
2026-05-05 20:34 54.70644 9.92831 24637 ft 384 kts 195°
2026-05-05 20:34 54.68027 9.91978 24136 ft 381 kts 195°
2026-05-05 20:34 54.65425 9.91134 23628 ft 380 kts 195°
2026-05-05 20:34 54.62831 9.90303 23000 ft 379 kts 195°
2026-05-05 20:35 54.60251 9.89476 22483 ft 375 kts 195°
2026-05-05 20:35 54.57697 9.88659 22029 ft 371 kts 194°
2026-05-05 20:35 54.55172 9.87851 21563 ft 367 kts 194°
2026-05-05 20:35 54.52663 9.87121 21070 ft 367 kts 188°
2026-05-05 20:36 54.50092 9.87455 20506 ft 377 kts 170°
2026-05-05 20:36 54.47630 9.89045 20073 ft 378 kts 161°
2026-05-05 20:36 54.45230 9.90887 19635 ft 376 kts 160°
2026-05-05 20:36 54.42862 9.92753 19234 ft 374 kts 160°
2026-05-05 20:37 54.40492 9.94645 18786 ft 378 kts 159°
2026-05-05 20:37 54.38104 9.96572 18340 ft 381 kts 159°
2026-05-05 20:37 54.35705 9.98515 17850 ft 381 kts 159°
2026-05-05 20:37 54.33319 10.00449 17375 ft 378 kts 158°
2026-05-05 20:38 54.30983 10.02342 16946 ft 374 kts 158°
2026-05-05 20:38 54.28639 10.04238 16515 ft 370 kts 158°
2026-05-05 20:38 54.26316 10.06115 16089 ft 367 kts 158°
2026-05-05 20:38 54.24019 10.07970 15660 ft 364 kts 158°
2026-05-05 20:39 54.21743 10.09805 15243 ft 360 kts 158°
2026-05-05 20:39 54.19482 10.11625 14825 ft 358 kts 158°
2026-05-05 20:39 54.17240 10.13428 14413 ft 355 kts 158°
2026-05-05 20:39 54.15011 10.15219 13999 ft 353 kts 158°
2026-05-05 20:40 54.12799 10.16994 13562 ft 351 kts 158°
2026-05-05 20:40 54.10594 10.18761 13105 ft 348 kts 158°
2026-05-05 20:40 54.08411 10.20508 12687 ft 345 kts 158°
2026-05-05 20:40 54.06247 10.22238 12277 ft 342 kts 157°
2026-05-05 20:41 54.04105 10.23949 11882 ft 339 kts 157°
2026-05-05 20:41 54.01981 10.25643 11492 ft 336 kts 157°
2026-05-05 20:41 53.99876 10.27321 11101 ft 333 kts 157°
2026-05-05 20:41 53.97770 10.28863 10814 ft 325 kts 166°
2026-05-05 20:42 53.95602 10.29647 10705 ft 312 kts 171°
2026-05-05 20:42 53.93523 10.30339 10674 ft 298 kts 171°
2026-05-05 20:42 53.91527 10.31001 10601 ft 287 kts 172°
2026-05-05 20:42 53.89601 10.31639 10492 ft 277 kts 172°
2026-05-05 20:43 53.87736 10.32257 10372 ft 269 kts 172°
2026-05-05 20:43 53.85933 10.32853 10264 ft 260 kts 172°
2026-05-05 20:43 53.84184 10.33432 10154 ft 255 kts 172°
2026-05-05 20:43 53.82442 10.34007 10058 ft 256 kts 172°
2026-05-05 20:44 53.80698 10.34582 9956 ft 255 kts 172°
2026-05-05 20:44 53.78949 10.35052 9836 ft 252 kts 182°
2026-05-05 20:44 53.77291 10.34389 9702 ft 244 kts 211°
2026-05-05 20:44 53.76086 10.32445 9641 ft 241 kts 241°
2026-05-05 20:45 53.75949 10.26945 9663 ft 245 kts 285°
2026-05-05 20:45 53.76463 10.24193 9611 ft 245 kts 289°
2026-05-05 20:45 53.77312 10.21643 9182 ft 260 kts 304°
2026-05-05 20:46 53.78361 10.19112 8630 ft 265 kts 303°
2026-05-05 20:46 53.79409 10.16524 8085 ft 268 kts 303°
2026-05-05 20:46 53.80449 10.13929 7707 ft 264 kts 303°
2026-05-05 20:46 53.81472 10.11366 7668 ft 259 kts 302°
2026-05-05 20:47 53.82449 10.08880 7587 ft 249 kts 303°
2026-05-05 20:47 53.83395 10.06479 7572 ft 245 kts 303°
2026-05-05 20:47 53.84376 10.03990 7628 ft 262 kts 303°
2026-05-05 20:47 53.85408 10.01369 7631 ft 272 kts 303°
2026-05-05 20:48 53.86467 9.98682 7272 ft 277 kts 303°
2026-05-05 20:48 53.87543 9.95947 6832 ft 281 kts 303°
2026-05-05 20:48 53.88715 9.93398 6442 ft 282 kts 319°
2026-05-05 20:48 53.90375 9.91704 6077 ft 274 kts 333°
2026-05-05 20:49 53.91968 9.90083 5771 ft 262 kts 317°
2026-05-05 20:49 53.92930 9.87575 5469 ft 251 kts 288°
2026-05-05 20:49 53.93127 9.84735 5216 ft 238 kts 262°
2026-05-05 20:49 53.92573 9.82207 5072 ft 223 kts 241°
2026-05-05 20:50 53.91835 9.79919 4972 ft 221 kts 236°
2026-05-05 20:50 53.90713 9.78264 4798 ft 212 kts 203°
2026-05-05 20:50 53.89316 9.77848 4640 ft 200 kts 174°
2026-05-05 20:50 53.87981 9.78244 4541 ft 192 kts 161°
2026-05-05 20:51 53.86736 9.79035 4479 ft 190 kts 152°
2026-05-05 20:51 53.85552 9.80024 4444 ft 189 kts 150°
2026-05-05 20:51 53.84398 9.81029 4225 ft 184 kts 150°
2026-05-05 20:51 53.83271 9.82015 3999 ft 181 kts 149°
2026-05-05 20:52 53.82161 9.82986 3769 ft 179 kts 149°
2026-05-05 20:52 53.81060 9.83948 3543 ft 177 kts 148°
2026-05-05 20:52 53.79973 9.84897 3313 ft 175 kts 148°
2026-05-05 20:52 53.78892 9.85839 3086 ft 174 kts 147°
2026-05-05 20:53 53.77823 9.86770 2861 ft 172 kts 147°
2026-05-05 20:53 53.76772 9.87686 2622 ft 172 kts 147°
2026-05-05 20:53 53.75727 9.88593 2409 ft 166 kts 147°
2026-05-05 20:53 53.74721 9.89469 2176 ft 161 kts 147°
2026-05-05 20:54 53.73724 9.90337 1957 ft 161 kts 147°
2026-05-05 20:54 53.72743 9.91188 1776 ft 156 kts 146°
2026-05-05 20:54 53.71798 9.92010 1531 ft 149 kts 146°
2026-05-05 20:54 53.70894 9.92795 1329 ft 144 kts 147°
2026-05-05 20:55 53.70003 9.93568 1116 ft 145 kts 147°
2026-05-05 20:55 53.69106 9.94346 930 ft 146 kts 149°
2026-05-05 20:55 53.68204 9.95127 700 ft 145 kts 149°
2026-05-05 20:55 53.67307 9.95901 468 ft 145 kts 149°
2026-05-05 20:56 53.66387 9.96706 277 ft 152 kts 150°
2026-05-05 20:56 53.65432 9.97512 127 ft 154 kts 150°
2026-05-05 20:56 53.64490 9.98349 176 ft 155 kts 152°
2026-05-05 20:56 53.63477 9.99202 837 ft 169 kts 151°
2026-05-05 20:57 53.62390 10.00080 1694 ft 179 kts 149°
2026-05-05 20:57 53.61187 10.01026 2340 ft 204 kts 149°
2026-05-05 20:57 53.59852 10.02164 3094 ft 224 kts 148°
2026-05-05 20:57 53.58488 10.03406 3770 ft 218 kts 147°
2026-05-05 20:58 53.57437 10.05145 3897 ft 215 kts 113°
2026-05-05 20:58 53.57309 10.07603 3953 ft 216 kts 77°
2026-05-05 20:58 53.57917 10.09927 4009 ft 221 kts 57°
2026-05-05 20:58 53.59031 10.11769 3989 ft 231 kts 34°
2026-05-05 20:59 53.60552 10.12704 3994 ft 238 kts 11°
2026-05-05 20:59 53.62151 10.13048 3968 ft 222 kts 10°
2026-05-05 20:59 53.63609 10.13391 3988 ft 201 kts 11°
2026-05-05 20:59 53.64931 10.13222 3976 ft 185 kts 343°
2026-05-05 21:00 53.66086 10.12391 4018 ft 180 kts 339°
2026-05-05 21:00 53.67210 10.11526 4008 ft 179 kts 338°
2026-05-05 21:00 53.68338 10.10622 4008 ft 180 kts 338°
2026-05-05 21:00 53.69463 10.09697 4006 ft 180 kts 337°
2026-05-05 21:01 53.70583 10.08762 4002 ft 180 kts 336°
2026-05-05 21:01 53.71700 10.07820 3993 ft 180 kts 336°
2026-05-05 21:01 53.72820 10.06869 3996 ft 180 kts 336°
2026-05-05 21:01 53.73938 10.05913 3997 ft 180 kts 336°
2026-05-05 21:02 53.75053 10.04956 3993 ft 180 kts 336°
2026-05-05 21:02 53.76168 10.03996 3991 ft 180 kts 336°
2026-05-05 21:02 53.77282 10.03034 3994 ft 179 kts 336°
2026-05-05 21:02 53.78396 10.02072 3992 ft 180 kts 336°
2026-05-05 21:03 53.79511 10.01105 3990 ft 180 kts 336°
2026-05-05 21:03 53.80624 10.00142 3996 ft 180 kts 336°
2026-05-05 21:03 53.81736 9.99177 3990 ft 180 kts 336°
2026-05-05 21:03 53.82848 9.98212 3987 ft 179 kts 336°
2026-05-05 21:04 53.83958 9.97249 3906 ft 180 kts 336°
2026-05-05 21:04 53.85073 9.96281 3673 ft 180 kts 336°
2026-05-05 21:04 53.86165 9.95236 3416 ft 183 kts 323°
2026-05-05 21:04 53.86937 9.93514 3149 ft 186 kts 297°
2026-05-05 21:05 53.87231 9.91383 2978 ft 188 kts 272°
2026-05-05 21:05 53.87028 9.89209 2938 ft 187 kts 251°
2026-05-05 21:05 53.86559 9.87150 3017 ft 188 kts 246°
2026-05-05 21:05 53.86046 9.85136 3025 ft 189 kts 245°
2026-05-05 21:06 53.85346 9.83297 2968 ft 185 kts 217°
2026-05-05 21:06 53.84214 9.82448 2949 ft 177 kts 180°
2026-05-05 21:06 53.83033 9.82723 3004 ft 170 kts 154°
2026-05-05 21:06 53.81949 9.83503 3039 ft 170 kts 150°
2026-05-05 21:07 53.80869 9.84307 3024 ft 170 kts 152°
2026-05-05 21:07 53.79816 9.85086 3029 ft 161 kts 149°
2026-05-05 21:07 53.78818 9.85910 2984 ft 159 kts 147°
2026-05-05 21:07 53.77854 9.86741 2790 ft 152 kts 146°
2026-05-05 21:08 53.76919 9.87556 2608 ft 150 kts 146°
2026-05-05 21:08 53.76012 9.88346 2435 ft 144 kts 145°
2026-05-05 21:08 53.75134 9.89111 2261 ft 142 kts 145°
2026-05-05 21:08 53.74261 9.89869 2067 ft 141 kts 145°
2026-05-05 21:09 53.73387 9.90629 1876 ft 141 kts 145°
2026-05-05 21:09 53.72511 9.91389 1694 ft 142 kts 146°
2026-05-05 21:09 53.71631 9.92155 1495 ft 143 kts 146°
2026-05-05 21:09 53.70749 9.92921 1303 ft 143 kts 146°
2026-05-05 21:10 53.69864 9.93690 1095 ft 143 kts 147°
2026-05-05 21:10 53.68973 9.94464 888 ft 145 kts 149°
2026-05-05 21:10 53.68080 9.95232 652 ft 143 kts 150°
2026-05-05 21:10 53.67197 9.96004 426 ft 143 kts 151°
2026-05-05 21:11 53.66306 9.96775 260 ft 144 kts 149°
2026-05-05 21:11 53.65413 9.97544 99 ft 144 kts 150°
2026-05-05 21:11 53.64593 9.98273 59 ft 117 kts 152°
2026-05-05 21:11 53.64001 9.98773 52 ft 73 kts 152°
2026-05-05 21:12 53.63594 9.99122 50 ft 66 kts 153°
2026-05-05 21:12 53.63316 9.99420 49 ft 25 kts 117°
2026-05-05 21:12 53.63277 9.99635 51 ft 15 kts 100°
2026-05-05 21:12 53.63301 9.99812 51 ft 17 kts 54°
2026-05-05 21:13 53.63385 9.99974 51 ft 20 kts 48°
2026-05-05 21:13 53.63436 10.00082 51 ft 5 kts 60°
2026-05-05 21:13 53.63444 10.00111 51 ft 1 kts 70°
2026-05-05 21:13 53.63445 10.00125 51 ft 2 kts 86°
2026-05-05 21:14 53.63441 10.00150 51 ft 5 kts 112°
2026-05-05 21:14 53.63404 10.00191 48 ft 9 kts 171°
2026-05-05 21:14 53.63324 10.00201 48 ft 14 kts 176°
2026-05-05 21:14 53.63237 10.00209 48 ft 9 kts 177°
2026-05-05 21:15 53.63150 10.00221 51 ft 13 kts 175°
2026-05-05 21:15 53.63102 10.00272 51 ft 9 kts 98°
2026-05-05 21:15 53.63103 10.00343 51 ft 0 kts 87°
2026-05-05 21:15 53.63104 10.00365 51 ft 5 kts 86°
2026-05-05 21:16 53.63104 10.00380 51 ft 0 kts 86°